CZ-3B DEB, 39334

Orbit data source: Space-Track

CZ-3B DEB, 39334 is space debris in HEO originally from a launch on Sat, 04 Sep 2010 UTC launched from the Xichang Space Center, China (XSC). Debris objects in space refer to the collection of defunct objects orbiting the Earth. Examples of debris include non-operational satellites, rocket bodies, and fragments generated from explosions, collisions, or faulty payload assembly.

Loading next visibility...
Identifier
39334, 2010-042F
Orbit
HEO
Country
Flag of CNCN / PRC
Related business
Manufacturer
CALT
Mission
Spacecraft
Bus & Motor
Unknown
Mass
Unknown
Launch date (UTC)
2010-09-04 (16 years ago)
Launch vehicle
Unknown
Launch site
Xichang Space Center, China (XSC)
Object type
Payload
Rocket body
Debris
Shape & HBR
Unknown shape, 0.3 m
Radar Cross Section
Medium (>0.1 m² and <1 m²)

Expand to show TLE details & history
Last TLE update: 14 hours ago

TLE from 14 hours ago
0 CZ-3B DEB
1 39334U 10042F   26127.40215081  .00000007  00000-0  00000+0 0  9994
2 39334  25.6931 249.5053 7372262  29.4441   1.2047  1.86382979 97060
Epoch: 2026-05-07T09:39Z
TLE epoch observation values (Epoch: 2026-05-07T09:39:05.829Z)
Latitude
17.174°
Longitude
-80.88144°
Altitude
1,041.402 km
Speed
9.653 km/s
True Right ascension
19h 16m 33s
True Declination
17° 04' 51"
Sunlit
Object was in daylight at epoch
Visualization orbit readout
Latitude
Unknown
Longitude
Unknown
Altitude
Unknown
Speed
Unknown
Apparent Right ascension
Unknown
Apparent Declination
Unknown
Sunlit
N/A
Visualization observer readout
Local Sidereal Time
07:17:55
Azimuth
Unknown
Elevation
Unknown
Doppler factor
Unknown
Orbital elements
Apogee altitude
42,081.284 km
Perigee altitude
951.862 km
Semi-major axis
27,894.71 km
Eccentricity
0.73723
Inclination
25.6931°
RAAN
249.5053°
Arg. of periapsis
29.4441°
True anomaly
11.71809°
Mean anomaly
1.2047°
Eccentric anomaly
4.57095°
Mean motion
0.46587 °/min
Orbital period
772.76 mins
BSTAR
0
Loading maneuver chart data...
Computing Atmospheric mass density...
Loading historical data...
Loading historical data...
Loading historical data...
Loading historical data...
Loading historical data...
Loading historical data...
Loading historical data...

Documentation

Showing up to 5 results
|